Location: Jetmore Oil Field
(38.1181°N, 99.9337°W)
Time: 01:03:26
(UTC+00:00)

STARLINK-2666 - Visible Passes

Search period start: 24 October 2021 00:00
Search period end: 03 November 2021 00:00
Orbit: 546 x 548 km, 53.1° (Epoch: 23 October)

Date Brightness Start Highest point End Pass type
(mag) Time Alt. Az. Time Alt. Az. Time Alt. Az.
24 Oct 6.1 11:03:17 10° S 11:06:17 20° SE 11:09:19 10° E visible
25 Oct 5.5 10:57:57 19° S 10:59:52 27° SE 11:03:23 10° ENE visible
26 Oct 4.8 10:52:56 35° SSE 10:53:29 37° SE 10:57:18 10° ENE visible
26 Oct 4.5 12:29:19 10° W 12:33:00 31° NNW 12:36:44 10° NNE visible
27 Oct 4.5 10:47:40 47° ESE 10:47:40 47° ESE 10:51:06 10° ENE visible
27 Oct 4.8 12:23:19 10° W 12:26:47 26° NNW 12:30:17 10° NNE visible
28 Oct 4.9 10:42:13 37° ENE 10:42:13 37° ENE 10:44:49 10° NE visible
28 Oct 5.1 12:17:51 12° WNW 12:20:35 21° NNW 12:23:48 10° NNE visible
29 Oct 5.5 10:36:37 26° NE 10:36:37 26° NE 10:38:29 10° NE visible
29 Oct 5.3 12:12:14 13° WNW 12:14:23 18° NNW 12:17:16 10° NNE visible
30 Oct 6.0 10:30:53 18° NE 10:30:53 18° NE 10:32:05 10° NE visible
30 Oct 5.6 12:06:30 13° NW 12:08:12 16° NNW 12:10:44 10° NNE visible
31 Oct 6.4 10:25:03 14° NE 10:25:03 14° NE 10:25:38 10° NE visible
31 Oct 5.7 12:00:39 12° NW 12:02:01 14° NNW 12:04:10 10° NNE visible
01 Nov 6.7 10:19:07 10° NE 10:19:07 10° NE 10:19:09 10° NE visible
01 Nov 5.8 11:54:44 11° NNW 11:55:50 12° NNW 11:57:35 10° NNE visible
02 Nov 5.9 11:48:44 11° NNW 11:49:40 11° N 11:50:58 10° N visible
